Terminal Aerodrome Forecast
Issued by NWS

Home | Current Version | Previous Version | Text Only | Print | Product List | Glossary On
Versions: 1 2 3 4 5 6 7 8 9 10 11 12 13 14 15 16
705
FTAK31 PAJN 091140
TAFAWG
TAF
PAWG 091140Z 0912/1012 VRB04KT 6SM -SHRA SCT007 BKN015 OVC030
     FM091400 14010KT P6SM VCSH FEW008 SCT015 OVC035
     FM092000 VRB06KT P6SM SCT020 BKN040 BKN060
     FM100400 10010KT P6SM SCT060 OVC100 WS020/13030KT
     FM100900 10010KT P6SM -RA SCT030 OVC060 WS020/13030KT
      AMD LTD TO CLD VIS AND WIND 0912/0915=

USA.gov is the U.S. government's official web portal to all federal, state and local government web resources and services.